Miscellaneous Local Product
Issued by NWS North Platte, NE

Home | Current Version | Previous Version | Graphics & Text | Print | Product List | Glossary On
Versions: 1 2 3 4 5 6 7 8 9 10 11 12 13 14 15 16 17 18 19 20 21 22 23 24 25 26 27 28 29 30 31 32 33 34 35 36 37 38 39 40 41 42 43 44 45 46 47 48 49 50
620
AXUS43 KLBF 200310
MISLBF


WESTERN AND NORTH CENTRAL NEBRASKA HOURLY WEATHER ROUNDUP
NATIONAL WEATHER SERVICE NORTH PLATTE NE
1000 PM CDT TUE SEP 19 2017

NOTE: "FAIR" INDICATES FEW OR NO CLOUDS BELOW 12,000 FEET WITH NO
SIGNIFICANT WEATHER AND/OR OBSTRUCTIONS TO VISIBILITY.

NOTE: STATIONS NOT REPORTING VARIABLES SUCH AS SKY/WEATHER OR
PRESSURE ARE PROVIDED BY RAWS AND APRS NETWORKS AND ARE NOT UNDER
NATIONAL WEATHER SERVICE QUALITY CONTROL.

...OBSERVATIONS IN AND NEAR THE EASTERN PANHANDLE OF NEBRASKA...

CITY           SKY/WX    TMP DP  RH WIND       PRES   REMARKS
GORDON         MOCLDY    58  38  47 W10       29.74R
CHADRON        CLOUDY    58  30  34 CALM      29.77R
ALLIANCE       CLOUDY    54  32  43 W13       29.78R
SIDNEY         CLOUDY    53  32  44 NW24G32   29.82R
CRESCENT LAKE    N/A     57  31  37 NW12G23     N/A
$$

...OBSERVATIONS IN NORTHERN NEBRASKA AND FAR SOUTHERN SOUTH DAKOTA...

CITY           SKY/WX    TMP DP  RH WIND       PRES   REMARKS
WINNER         MOCLDY    67  47  48 NW20G31   29.62R
VALENTINE      PTCLDY    66  48  52 NW17G24   29.65R
THEDFORD       CLOUDY    64  47  53 NW17G24   29.66R
AINSWORTH      CLEAR     65  48  55 NW16G24   29.64R
O`NEILL        CLOUDY    75  67  76 S8        29.48R
ORD            CLOUDY    77  60  55 SW17G28   29.50R
BROKEN BOW     CLOUDY    70  45  40 NW31G40   29.58R
VALENTINE NWR    N/A     65  46  50 NW17G30     N/A
HALSEY           N/A     66  43  44 NW13G26     N/A
BUTTE            N/A     59  55  87 NW16G28     N/A
CHAMBERS         N/A     73  66  78 SW3         N/A
EWING            N/A     74  68  80 S3          N/A
$$

...OBSERVATIONS IN SOUTHWEST NEBRASKA AND FAR NORTHEAST COLORADO...

CITY           SKY/WX    TMP DP  RH WIND       PRES   REMARKS
WRAY           FAIR      61  32  33 N28G37    29.74R
HOLYOKE        FAIR      59  34  38 N24G32    29.76R
IMPERIAL       CLOUDY    63  30  28 N33G41    29.71R
OGALLALA       CLEAR     63  32  31 NW18G29   29.73R
NORTH PLATTE   CLOUDY    65  39  38 NW18G26   29.66R
MCCOOK         CLOUDY    68  42  38 NW20G33   29.65R
LEXINGTON      CLOUDY    70  43  37 NW18G28   29.59R
STAPLETON        N/A     63  42  47 W5G14       N/A
GOTHENBURG       N/A     70  40  33 NW16        N/A
CALLAWAY         N/A     68  46  44 NW24        N/A
$$

...OBSERVATIONS IN CENTRAL LINCOLN COUNTY AREA...

CITY           SKY/WX    TMP DP  RH WIND       PRES   REMARKS
N.P. AIRPORT   CLOUDY    65  39  38 NW18G26   29.66R
N.P. DOWNTOWN    N/A     65  41  41 NW8G21      N/A
N.P. SOUTHEAST   N/A     65  39  39 N10G17      N/A
N.P. HILLCREST   N/A     65  41  41 NW20G31     N/A
$$

...SOME OBSERVATIONS FROM AROUND THE REGION...

CITY           SKY/WX    TMP DP  RH WIND       PRES   REMARKS
DENVER         CLEAR     50  29  44 SE7       29.84R
LIMON          CLEAR     53  32  44 N23G35    29.81R
ASPEN          CLOUDY    63  21  20 SW14G21   29.94R
LARAMIE        CLOUDY    37  33  85 SE7       29.98F WCI  32
CASPER         CLEAR     42  34  73 SW12      29.85R
CHEYENNE       CLEAR     44  31  60 NW29G41   29.86R
SCOTTSBLUFF    PTCLDY    53  33  46 W16G24    29.78F
GRAND ISLAND   CLOUDY    78  68  71 S13       29.51R
OMAHA          MOCLDY    80  68  66 SE21G31   29.61R
SIOUX FALLS    LGT RAIN  77  68  73 S21G30    29.45F
PIERRE         PTCLDY    63  50  62 NW25G32   29.57F
RAPID CITY     LGT RAIN  48  45  87 MISG      29.73S
BISMARCK       LGT RAIN  57  36  45 W16G22    29.56R
KANSAS CITY    PTCLDY    79  69  71 S18G29    29.73R
HILL CITY      PTCLDY    79  35  20 S10       29.56R
WICHITA        PTCLDY    83  68  60 S20       29.66R
DODGE CITY     CLOUDY    78  39  24 S16       29.62R
OKLAHOMA CITY  CLOUDY    80  69  69 S13       29.77R
DALLAS         CLOUDY    87  70  56 S13       29.84R HX  92
AMARILLO       CLOUDY    76  46  34 S15G31    29.78R
$$




USA.gov is the U.S. government's official web portal to all federal, state and local government web resources and services.